Wind_Speed
9 13 16 17 19 21 21 20 18 18 17 16 15 15 14 13 13 13 13 11 10 9 8 6 6 5 4 4 3 2 2 2 3 5 6 7 7 7 6 5 4 4 4 5 4 3 2 2 3 3 3 2 1 1 2 3 3 4 4 4 4 3 4 4 4 3 3 4 6 7 7 7 7 7 7 6 6 6 6 5 6 5 5 6 6
8 11 15 17 18 20 20 19 18 18 17 16 15 15 14 14 14 13 13 11 10 9 8 7 7 6 5 6 5 5 4 3 4 4 6 6 7 6 6 4 4 4 5 4 2 1 0 2 2 2 2 2 1 1 1 2 3 3 4 4 4 3 3 3 3 3 2 3 3 5 5 6 6 6 7 7 7 7 6 6 6 6 7 7 7
7 10 12 16 18 18 19 18 17 16 16 16 15 15 15 14 14 12 12 11 10 9 8 9 8 7 7 8 8 7 5 4 3 3 4 5 5 4 4 4 3 4 5 3 0 1 2 2 1 1 2 1 1 1 1 1 2 3 3 4 3 3 4 3 3 2 2 2 2 3 3 3 4 5 5 6 6 6 6 6 6 5 5 7 7
6 9 10 14 17 18 18 18 17 16 16 16 15 15 15 14 14 13 12 11 10 9 10 10 9 8 7 8 7 6 5 3 2 1 2 2 2 1 1 1 2 4 5 2 1 1 2 3 2 0 1 1 1 1 0 0 0 1 2 3 3 3 3 3 2 1 1 1 2 2 3 3 3 3 3 4 4 4 5 5 6 6 5 5 6
5 8 10 12 15 17 18 18 17 16 16 16 15 15 14 14 14 13 13 12 11 10 10 10 9 8 7 7 6 5 3 2 1 1 2 2 2 2 1 1 0 3 3 1 2 3 4 4 3 2 2 2 2 2 1 1 1 1 1 2 2 2 1 1 1 1 1 1 2 3 3 3 3 3 3 3 3 2 2 3 4 5 6 5 5
5 7 10 11 13 16 17 17 17 16 16 16 15 15 14 14 14 13 12 12 10 9 9 9 10 8 8 7 6 5 4 3 2 2 3 3 3 3 3 2 1 1 2 2 3 4 5 5 4 3 3 3 3 2 2 2 2 2 2 1 0 0 0 0 0 2 2 2 3 3 4 3 3 3 4 4 4 3 1 1 1 3 4 4 4
4 6 8 10 12 14 16 16 16 16 15 15 15 15 15 15 14 12 11 10 9 9 9 9 9 9 9 8 7 6 5 4 3 3 4 4 5 4 4 4 3 2 2 3 5 6 6 6 5 5 4 4 4 3 3 3 4 4 5 4 3 3 3 3 3 3 4 4 4 4 4 3 2 2 4 3 4 4 2 1 1 0 1 1 1
3 5 6 8 11 13 14 15 16 15 15 14 14 14 14 14 13 12 11 10 9 8 8 8 9 9 9 9 7 6 5 4 4 4 5 6 7 6 6 5 4 4 4 4 7 8 8 8 6 5 5 5 4 4 4 4 4 5 5 6 6 6 7 7 6 6 5 6 6 5 4 3 2 1 1 2 3 3 2 2 2 2 2 1 2
2 4 5 7 9 11 13 14 15 15 14 14 13 13 13 13 12 11 10 10 9 9 8 8 8 9 9 8 7 6 6 6 6 5 6 8 8 7 6 6 6 5 5 6 8 9 9 9 7 5 5 6 6 6 5 6 5 5 5 6 7 7 8 9 9 8 7 7 7 6 5 4 3 1 1 2 2 2 2 3 3 4 5 5 4
2 4 4 6 7 10 12 13 14 14 14 13 13 12 12 13 11 10 10 9 9 9 8 8 8 8 9 9 8 8 8 8 8 8 8 9 8 6 5 6 6 6 6 6 8 10 9 7 7 6 7 8 9 8 7 7 6 6 6 6 7 7 8 9 9 8 8 7 7 7 7 5 4 3 3 3 4 5 6 7 7 8 8 9 8
1 3 4 5 7 9 10 12 13 13 14 13 13 12 12 12 11 10 10 9 9 9 8 8 9 8 9 9 9 9 9 9 10 9 9 9 7 5 4 4 5 6 6 6 8 10 10 9 8 8 8 10 10 9 9 8 7 7 6 6 6 6 6 6 7 6 6 6 6 7 7 6 6 5 4 4 6 7 9 9 9 8 8 8 8
2 2 3 4 6 8 9 11 12 13 13 13 13 12 12 12 11 11 10 10 10 10 9 9 10 9 9 10 10 10 9 9 10 10 10 8 6 4 2 2 3 4 5 5 7 9 11 10 10 9 9 10 10 9 9 8 7 6 5 5 4 3 2 2 3 4 4 5 5 5 6 6 6 4 3 4 5 6 6 6 5 5 5 5 6
3 2 2 4 5 7 8 10 11 12 13 13 13 12 12 12 12 11 10 10 10 10 10 10 10 10 10 10 10 10 9 9 10 10 9 6 5 5 2 2 2 2 3 5 7 9 11 12 11 8 8 9 9 8 8 7 5 4 3 3 2 2 2 2 2 3 3 4 4 5 5 6 6 4 3 4 5 6 6 5 4 4 5 6 7
4 3 2 3 4 5 7 9 11 12 13 13 13 12 13 13 13 12 11 11 11 11 11 11 11 11 11 10 10 9 8 8 10 10 8 6 5 6 4 1 1 2 3 5 7 10 11 13 11 7 5 6 7 7 6 5 3 2 2 1 1 2 2 3 3 3 3 3 3 4 5 6 6 6 5 5 7 7 7 6 6 6 7 8 10
5 4 3 3 4 5 7 8 10 11 13 13 13 13 13 13 13 13 12 12 12 12 12 12 11 11 11 11 11 9 7 8 9 10 9 7 7 8 7 3 3 4 6 7 9 11 11 12 11 7 5 5 5 6 4 3 2 1 1 1 1 2 3 3 3 4 3 4 3 3 4 4 5 6 7 7 7 7 7 6 7 7 8 9 10
6 5 4 4 4 5 6 8 10 11 12 13 14 13 13 14 14 14 13 13 12 12 12 12 12 12 12 11 11 9 8 8 8 9 10 8 7 8 8 6 5 7 7 9 10 11 11 10 9 7 5 4 4 5 3 2 1 1 1 1 1 2 3 3 4 4 5 5 5 5 4 4 5 6 7 8 8 8 7 7 7 7 8 9 9
7 5 4 4 5 6 6 8 9 11 12 13 14 14 14 14 14 14 13 13 13 13 12 12 12 12 12 12 11 10 9 9 9 9 10 10 9 8 9 9 9 8 9 10 11 11 10 10 8 6 4 3 3 3 2 2 2 1 1 0 1 2 2 3 4 5 5 6 6 6 6 6 6 7 8 8 9 9 8 8 9 8 8 9 9
9 7 5 4 4 6 7 8 9 11 12 13 14 14 14 14 15 14 14 14 13 13 13 12 12 12 13 13 12 11 10 10 11 10 10 11 11 10 10 11 12 10 9 10 12 12 11 11 9 6 4 4 4 3 3 3 3 2 1 1 1 2 3 4 5 5 6 6 6 6 7 7 8 8 9 10 10 9 9 9 9 9 10 10 10
11 9 7 6 5 6 7 9 9 10 12 13 14 14 14 15 15 15 14 14 14 13 13 13 13 13 13 13 13 13 12 12 12 12 12 12 13 12 11 13 14 11 9 9 11 12 12 11 10 7 5 5 5 4 4 4 3 3 2 2 2 3 4 5 6 6 6 6 6 6 6 7 8 9 10 11 11 10 10 10 10 10 11 11 11
12 11 10 8 7 7 8 9 10 10 11 12 14 15 15 15 15 16 16 15 15 14 14 14 13 13 13 13 14 14 14 14 14 15 15 15 16 15 13 15 15 12 10 9 10 11 10 10 9 7 6 6 6 5 5 5 4 4 3 3 3 4 5 6 7 7 7 7 6 7 6 7 7 8 9 10 11 11 11 11 11 11 11 12 12
12 12 11 10 10 9 9 10 11 11 11 12 13 14 15 15 16 16 16 16 16 15 15 14 14 14 14 14 14 15 15 14 15 16 17 17 17 16 15 15 15 13 10 9 10 10 9 9 8 7 7 6 7 7 6 6 5 5 5 4 5 6 6 7 7 6 7 7 7 7 7 8 8 9 9 9 10 10 10 11 11 11 11 12 12
11 11 12 11 12 11 10 10 10 11 11 12 13 13 14 15 16 16 16 16 16 16 15 15 15 15 15 15 15 15 15 15 15 15 16 17 17 16 15 15 14 13 11 10 11 10 8 8 7 6 7 7 8 8 8 7 7 6 6 6 6 6 7 7 6 6 6 7 7 7 7 8 8 9 9 10 10 10 10 10 11 11 11 12 12
9 10 10 10 11 11 11 11 10 10 11 12 12 13 13 14 15 16 16 16 16 16 15 15 16 16 15 15 16 15 15 15 15 15 15 15 16 16 16 16 16 15 14 12 11 10 10 8 6 5 6 8 9 8 9 9 8 8 7 7 7 7 7 7 6 6 6 7 7 7 7 7 8 9 9 10 10 10 10 10 11 11 12 12 12
7 8 9 10 10 11 11 11 10 10 10 10 11 12 13 13 14 15 16 16 17 17 17 17 17 17 17 17 16 16 15 15 15 15 15 15 16 16 16 16 16 16 14 14 12 11 11 10 6 4 5 8 10 9 10 11 10 9 9 8 8 8 8 7 7 7 7 8 8 8 8 8 8 9 9 10 10 10 10 11 11 11 11 12 11
7 8 10 10 11 11 10 10 10 9 9 9 9 10 11 12 13 14 15 16 17 18 18 18 19 19 18 17 17 16 16 16 16 16 15 16 17 17 18 17 16 16 16 16 15 13 14 12 8 5 5 8 10 11 11 11 11 11 10 10 10 10 9 8 8 8 8 9 9 9 9 9 9 10 10 11 11 11 11 12 11 12 11 11 11
9 10 11 11 12 12 11 10 9 9 8 8 8 8 9 10 11 13 14 15 16 19 20 19 19 20 19 18 18 18 18 18 16 17 17 16 17 17 18 19 16 16 19 20 18 16 15 13 9 7 7 8 10 12 12 12 13 12 12 11 11 11 10 9 9 9 9 9 10 10 11 11 11 11 12 12 12 12 13 13 13 13 13 11 10
11 12 13 13 13 12 11 10 9 8 8 8 8 7 7 8 9 10 12 14 15 17 20 21 21 20 19 18 19 19 19 19 18 18 18 15 16 17 17 20 19 18 22 22 21 19 16 14 11 10 10 10 11 13 14 14 14 14 13 13 13 12 11 10 9 9 10 10 11 11 11 12 12 13 13 14 14 14 14 14 14 15 15 14 13
12 13 13 12 12 12 11 10 9 8 8 8 8 7 7 7 8 8 9 11 14 14 15 18 21 21 21 20 19 19 20 20 20 20 18 15 18 19 16 18 19 19 22 23 23 21 18 16 13 13 13 12 12 12 15 16 16 16 15 15 14 14 12 11 10 10 10 11 11 11 11 12 12 13 13 14 14 15 15 15 15 15 15 15 15
12 12 12 11 10 10 10 10 9 9 8 8 8 7 7 7 7 8 8 7 9 13 14 12 16 20 22 21 19 17 19 21 18 19 20 17 20 20 16 18 20 20 21 23 23 21 21 19 15 15 16 14 13 13 14 17 17 17 17 16 16 16 15 13 12 11 11 11 12 12 12 12 12 12 13 13 14 15 15 16 16 15 15 15 15
11 11 10 10 9 7 8 9 10 10 9 9 8 7 6 6 6 7 8 8 6 9 14 12 11 16 18 19 18 16 17 20 18 19 20 18 19 19 17 18 22 23 21 20 22 21 21 20 17 18 17 15 14 14 15 17 18 19 19 18 17 18 17 15 14 13 13 12 13 13 13 13 13 13 13 13 14 14 15 16 16 16 15 15 14
9 9 8 8 8 6 5 6 8 9 10 9 9 7 6 5 5 6 6 6 7 6 8 9 8 12 16 18 19 19 16 17 18 19 17 16 18 20 19 16 19 22 19 19 21 20 20 19 18 19 18 15 13 14 15 16 18 20 21 20 19 19 19 18 16 15 14 14 14 14 14 14 14 13 13 13 13 14 15 15 15 16 15 14 13
8 8 8 8 7 6 5 4 5 8 9 9 9 8 7 5 4 4 4 4 5 5 5 7 6 7 13 16 15 17 16 15 17 17 15 14 16 18 18 14 14 17 16 18 19 18 18 17 17 18 18 14 12 13 14 15 17 19 21 21 21 20 20 20 19 18 17 16 15 15 16 16 15 15 14 14 13 14 15 15 15 16 15 15 13
8 9 9 8 7 5 4 3 4 5 7 9 9 8 7 6 4 3 3 2 2 3 3 3 4 3 6 10 10 11 12 11 12 14 13 11 12 14 15 12 12 15 17 17 17 17 16 15 15 17 17 14 12 14 15 15 16 17 20 22 23 22 22 22 21 21 19 18 18 17 17 17 17 16 16 15 14 14 15 15 16 17 17 16 15
9 9 9 8 7 4 3 3 4 5 6 7 9 9 8 7 6 4 2 1 1 2 1 2 3 3 3 6 8 9 9 8 9 10 10 9 10 11 10 8 8 12 15 15 15 14 14 13 14 15 15 14 14 15 15 15 15 15 17 19 22 23 24 24 23 23 22 21 20 20 19 19 18 18 18 17 16 15 15 16 16 17 18 18 17
8 8 8 7 6 4 3 4 4 5 5 6 7 8 8 8 7 6 4 4 2 2 4 4 5 6 5 6 7 8 8 8 8 8 8 9 9 9 8 7 7 9 11 11 12 12 12 11 12 13 14 14 15 16 17 16 15 15 15 16 19 22 24 25 25 25 24 23 23 22 21 20 20 19 19 19 17 17 17 17 17 17 18 18 18
6 6 7 6 5 4 3 2 2 3 3 4 5 6 7 7 7 6 5 5 4 5 7 6 7 8 7 8 8 9 9 10 10 9 9 9 8 8 9 9 8 9 10 9 10 10 10 11 13 13 14 14 15 18 20 20 18 17 16 16 17 19 22 24 26 26 26 25 25 25 24 22 22 21 21 20 19 19 18 18 18 18 18 18 19
5 5 5 5 4 4 2 2 1 1 1 1 2 3 4 4 5 5 5 4 4 5 6 6 8 7 7 7 6 7 8 8 9 9 10 11 12 13 11 10 11 12 11 11 12 12 13 15 15 14 14 15 15 16 18 20 20 20 19 18 17 18 18 20 22 24 26 27 27 27 26 25 25 24 23 22 22 21 20 20 20 20 20 19 20
5 4 4 4 4 4 4 4 4 4 4 3 2 2 2 3 4 4 5 5 4 4 5 7 8 6 6 6 6 7 8 8 7 7 8 9 10 12 12 12 12 12 11 12 13 13 14 16 16 15 16 17 15 14 14 16 18 19 20 20 20 19 19 19 19 20 23 25 27 28 28 28 27 26 25 25 24 24 23 23 23 22 21 21 21
5 5 5 5 5 5 6 6 6 6 7 6 6 6 4 4 5 4 4 5 3 3 4 6 6 4 5 6 7 9 9 9 9 9 9 10 10 11 11 11 12 12 12 12 12 12 13 15 17 18 19 18 17 15 15 16 16 17 18 20 22 23 22 21 21 20 20 22 24 26 28 29 29 28 27 27 26 26 25 25 25 24 24 23 23
5 5 5 4 5 7 6 7 10 11 10 9 8 7 5 5 5 4 4 5 4 3 3 2 3 4 5 5 6 5 4 5 6 7 9 12 13 13 13 12 12 12 13 13 13 13 13 15 17 17 16 16 16 16 16 17 18 18 18 19 21 22 24 24 24 23 22 22 22 23 25 26 28 29 28 28 28 28 27 28 28 27 26 26 25
5 6 6 7 8 8 8 10 12 11 9 9 8 6 6 5 3 3 3 4 3 1 1 1 2 4 5 6 8 8 7 7 6 8 10 10 11 12 13 13 13 13 13 14 16 16 17 17 16 16 17 18 18 17 16 17 19 20 20 21 21 22 23 25 25 25 25 24 24 24 23 24 25 26 27 29 29 29 29 29 30 29 29 28 27
9 10 11 12 12 12 12 13 13 10 10 9 8 7 7 6 5 5 5 3 2 1 2 1 2 5 6 7 7 8 10 11 11 11 11 10 10 11 13 14 15 16 17 17 18 19 19 19 19 20 22 22 21 19 18 19 20 21 22 25 25 25 25 25 26 26 25 24 24 24 23 23 23 23 24 26 27 29 30 31 31 31 31 30 30
16 16 17 17 17 18 18 18 17 16 16 14 13 14 13 12 10 9 8 6 6 6 5 5 4 5 6 7 7 7 8 9 9 10 10 11 12 13 14 15 17 18 18 19 19 20 21 22 23 23 23 23 23 22 21 21 20 21 21 21 23 27 28 25 23 24 24 24 24 25 24 23 22 21 21 21 22 25 27 29 30 32 32 32 32
22 22 22 21 22 22 22 21 21 21 21 20 19 19 18 16 15 13 11 11 12 11 9 8 7 7 7 8 8 8 8 9 8 8 8 9 10 12 13 14 15 15 16 16 16 17 18 19 21 22 22 21 20 21 21 21 21 20 18 17 19 22 22 21 25 27 26 25 24 23 22 22 21 21 21 21 20 20 21 22 24 27 29 31 32
25 25 25 24 24 24 24 23 23 23 23 22 21 20 19 18 17 15 14 13 13 11 10 10 9 8 8 9 10 10 9 9 8 8 9 9 9 9 9 10 11 11 12 12 13 13 14 15 16 17 18 18 19 19 20 20 20 19 17 16 15 15 16 22 29 32 28 25 24 24 24 24 24 25 25 25 24 23 22 21 22 23 23 25 26
25 25 24 24 24 24 23 23 23 23 23 22 21 19 19 18 17 16 14 12 12 12 12 13 11 10 10 10 10 9 8 8 8 8 9 9 10 10 10 10 10 10 11 11 12 12 13 13 14 14 16 17 18 19 19 20 19 18 18 16 14 15 19 23 25 29 33 33 31 29 29 28 29 29 30 30 29 28 28 27 27 27 26 25 24
24 23 22 22 22 22 22 21 22 22 22 21 19 18 17 17 16 15 14 13 13 14 15 14 13 13 11 10 9 9 8 8 8 8 8 8 9 9 9 9 10 10 10 10 10 11 12 12 13 14 15 16 17 18 18 20 20 19 18 18 17 17 19 20 21 24 32 38 38 35 34 34 33 33 33 33 33 32 32 32 32 31 30 29 28
22 21 20 20 20 20 20 20 20 21 20 19 18 17 17 16 16 15 14 15 15 15 14 13 13 12 10 9 10 9 9 9 8 8 8 8 8 8 9 9 9 9 10 10 11 11 11 12 12 13 14 15 16 16 16 18 19 19 19 19 19 20 20 20 22 22 25 34 41 41 39 37 36 36 36 36 35 35 35 34 34 34 33 32 32
20 19 19 19 19 18 18 18 19 20 19 17 16 17 17 16 16 15 15 16 15 14 12 11 11 10 9 9 9 9 10 10 10 10 9 10 10 10 10 10 10 10 10 11 11 12 12 12 12 12 12 13 14 15 15 17 18 18 19 19 20 21 22 22 23 24 24 29 37 41 41 41 41 40 38 38 38 37 37 37 37 36 36 35 34
19 18 18 18 18 17 16 16 18 18 17 16 15 17 16 15 16 15 15 15 14 12 10 9 9 8 8 8 8 9 10 10 10 11 10 11 11 11 11 11 12 12 12 11 11 12 13 14 15 14 14 13 13 13 13 14 16 18 19 20 21 21 21 21 21 22 24 26 31 37 40 42 44 45 43 41 40 39 39 38 38 38 38 38 37
17 16 16 16 16 15 14 15 17 16 15 15 14 15 15 14 15 14 13 14 12 9 8 8 8 7 8 8 8 9 9 9 10 10 10 11 12 12 13 13 13 13 13 13 13 14 14 14 15 15 15 15 14 13 12 12 12 13 15 17 19 20 20 21 21 21 23 25 28 33 37 39 43 46 44 43 42 41 40 39 38 38 38 38 38
Wind_Direction
181 172 174 179 179 177 177 180 180 180 181 185 185 188 188 189 197 199 201 202 204 210 215 215 218 219 223 217 209 193 174 161 147 139 137 141 143 144 144 143 130 107 97 91 86 94 104 108 99 82 61 40 22 63 100 108 112 111 101 105 109 111 109 100 108 103 96 97 98 102 102 105 101 95 92 87 84 81 79 79 76 76 79 74 73
182 180 177 177 182 181 182 183 183 184 183 186 188 191 192 195 199 202 208 210 213 222 231 233 231 223 214 203 197 186 180 177 165 157 153 156 158 159 157 155 141 111 93 85 70 14 170 154 127 92 57 28 343 282 116 111 111 113 110 104 103 99 88 77 83 85 81 94 98 95 96 103 101 93 88 82 80 80 82 81 76 75 83 83 80
169 184 184 176 181 184 187 189 189 189 186 187 191 195 197 202 204 208 215 219 223 230 241 245 244 236 215 199 194 185 181 182 172 168 168 172 172 167 163 158 146 114 95 90 89 314 297 228 172 102 61 26 321 257 233 142 134 130 125 118 113 97 84 74 68 68 70 78 81 77 74 86 91 86 82 78 76 75 81 83 77 74 86 94 88
152 176 188 181 181 185 190 193 194 194 192 191 194 200 201 207 212 218 224 228 233 237 245 245 244 240 221 203 197 191 188 187 178 190 196 203 196 185 180 162 138 109 105 120 230 270 279 252 235 202 32 9 297 243 280 316 176 165 151 143 133 109 90 77 61 55 62 54 49 44 32 35 49 62 64 62 67 71 77 80 80 76 83 97 100
140 167 186 187 183 184 190 195 198 200 200 198 199 205 206 210 218 227 231 236 238 241 245 239 236 235 223 208 202 203 203 210 217 238 246 247 244 254 259 259 87 93 111 170 250 255 264 262 260 274 308 330 302 261 267 291 293 277 191 165 151 132 106 93 75 6 334 332 351 353 350 354 359 11 26 27 25 32 62 77 82 80 79 88 107
143 160 183 190 188 187 189 195 199 202 206 206 206 210 211 213 223 232 235 241 240 240 242 233 230 226 215 204 203 209 211 219 230 246 250 251 251 260 267 276 275 108 143 211 250 256 266 272 276 292 300 303 299 275 264 269 272 280 272 267 249 347 360 133 254 277 288 294 300 314 325 340 353 16 29 24 15 6 340 14 84 84 81 84 98
156 155 178 191 195 191 190 194 197 201 206 209 211 214 217 220 226 232 235 241 244 244 241 232 224 216 207 204 205 209 217 226 239 256 263 268 263 261 260 262 259 228 210 232 254 260 275 289 288 289 293 293 300 293 273 264 266 269 270 280 291 299 307 303 295 282 280 282 283 294 306 327 351 45 39 15 9 10 348 309 303 53 77 90 86
172 160 170 186 198 198 196 196 197 199 202 207 211 214 219 225 228 230 233 240 247 250 244 233 222 213 208 209 213 217 226 238 255 270 280 281 275 267 257 252 248 235 224 232 252 263 275 290 289 274 280 290 298 300 288 275 268 268 267 273 280 286 294 299 300 293 282 280 282 284 289 306 316 96 46 344 344 359 357 324 315 325 326 309 290
190 174 166 178 194 201 202 200 200 199 200 205 207 212 219 226 228 228 232 238 244 249 245 234 223 218 217 221 226 234 245 258 269 281 289 289 282 271 260 252 243 235 233 239 255 267 278 286 279 260 274 294 300 301 296 291 280 273 272 271 274 278 285 291 294 293 284 281 282 277 275 282 292 255 254 308 307 306 304 303 310 310 308 304 291
217 192 174 172 187 200 205 204 204 202 203 205 206 211 218 224 225 225 231 236 242 247 246 238 234 228 228 233 235 243 252 264 275 284 292 291 285 275 262 248 239 235 237 246 259 271 282 282 272 264 277 290 293 298 299 295 288 282 280 277 275 276 280 284 285 286 282 281 282 280 279 276 280 265 248 271 278 276 277 284 295 303 304 300 290
298 214 191 177 186 199 207 208 208 207 208 208 208 212 216 222 222 223 228 233 240 246 250 246 248 244 242 247 247 250 257 266 276 286 294 291 279 271 260 239 236 235 236 251 263 276 283 280 278 276 282 287 287 294 299 294 290 287 287 286 286 284 283 283 283 285 282 285 285 288 293 293 288 278 263 270 284 285 286 288 292 298 300 302 297
343 258 216 194 191 200 208 212 214 213 214 213 212 214 217 223 224 224 226 232 238 243 249 248 249 251 251 255 257 261 265 270 280 294 302 291 264 253 240 192 223 238 247 269 286 295 293 291 291 286 287 287 288 295 298 295 290 290 295 294 297 298 304 305 303 306 303 303 303 302 303 305 306 297 278 274 289 297 307 310 308 303 287 290 299
355 321 260 227 209 205 209 213 218 219 221 222 219 218 220 224 227 227 228 234 240 243 247 248 247 250 253 254 256 262 268 275 287 302 310 294 255 247 242 146 203 257 298 306 309 305 304 306 304 304 299 288 290 300 300 298 294 295 302 299 304 325 352 3 360 356 344 337 327 323 315 312 319 315 286 258 267 284 306 315 312 302 277 277 290
355 335 300 262 241 224 218 215 219 222 225 229 229 225 225 227 229 230 232 236 242 247 250 251 249 249 254 255 254 258 268 280 290 301 307 298 274 263 264 227 242 299 333 322 312 303 304 307 310 330 322 299 299 305 306 303 303 303 299 297 323 355 6 6 7 7 3 358 347 337 324 319 320 317 306 279 275 290 303 301 293 289 278 281 291
359 338 315 291 268 247 235 227 222 222 224 229 234 232 231 232 233 235 235 238 242 248 251 252 252 252 256 257 258 261 263 271 281 291 295 291 283 274 267 263 276 303 322 321 315 307 303 298 307 328 316 308 310 305 311 311 312 290 279 325 353 1 3 2 359 356 358 355 350 344 329 322 318 312 310 305 306 314 319 312 301 296 288 288 294
360 353 331 307 288 269 251 240 232 227 225 227 233 234 233 235 237 239 240 242 245 249 251 252 252 255 260 258 260 261 256 260 265 273 281 283 282 278 270 271 285 297 309 318 321 314 309 306 314 321 297 294 299 297 306 291 278 241 266 349 359 2 355 352 349 345 346 345 343 341 334 323 314 306 306 311 318 327 331 321 313 308 302 299 299
339 348 345 322 298 285 270 253 242 234 230 228 232 233 233 236 239 241 241 244 247 250 252 253 252 251 256 257 257 256 250 253 254 254 266 273 275 275 272 278 289 294 301 316 326 321 318 326 336 327 292 280 279 279 274 252 231 232 257 339 342 348 340 337 334 333 334 336 338 335 333 326 317 310 308 312 318 326 329 322 319 317 311 306 306
321 324 325 322 306 292 282 268 253 241 236 233 233 234 234 234 239 242 242 245 247 250 253 254 252 249 251 255 252 249 245 246 247 247 253 259 263 268 268 274 281 284 295 315 323 320 323 330 333 326 300 278 272 265 250 239 234 238 253 286 315 325 327 328 324 326 327 329 330 329 329 325 320 315 313 317 320 325 324 321 322 321 316 313 311
312 309 304 304 302 293 288 278 266 253 243 238 237 238 237 236 238 241 242 244 246 249 252 254 253 251 251 253 250 244 240 240 241 242 244 246 252 260 265 268 272 275 286 305 313 320 329 328 326 318 293 275 270 262 247 242 249 254 263 286 310 320 323 324 322 323 325 325 324 324 323 320 320 317 315 318 321 325 325 323 324 322 318 316 316
305 304 299 293 291 291 293 288 277 268 255 246 243 242 242 241 240 242 243 244 246 248 250 253 254 254 253 250 247 243 239 237 238 242 244 243 247 254 260 266 273 279 285 295 304 317 328 327 327 313 285 275 270 260 250 247 254 263 274 290 306 316 323 323 324 326 326 327 324 324 322 319 318 315 315 315 318 323 325 324 323 322 319 318 319
305 307 305 299 296 292 292 292 286 278 269 259 250 246 245 244 244 243 244 246 246 247 249 251 251 252 253 250 246 242 241 239 238 242 246 246 248 251 254 263 275 280 283 295 302 314 325 322 324 313 292 279 272 266 257 253 256 265 273 285 301 311 319 320 324 328 328 328 327 326 324 322 320 316 316 315 317 320 322 323 322 320 317 318 318
299 301 301 299 296 293 291 292 290 284 277 269 261 254 249 246 246 245 245 246 246 247 248 251 252 251 251 250 248 245 243 241 240 243 247 249 250 252 254 258 269 277 282 293 299 311 323 312 311 316 303 284 275 273 268 265 264 268 274 283 296 305 313 316 322 326 328 330 330 330 328 326 323 320 319 318 320 321 322 322 321 319 318 319 318
288 290 290 287 285 285 286 289 291 286 278 272 269 265 259 253 249 248 248 245 244 245 245 246 249 252 252 251 250 248 246 243 244 246 247 251 255 258 258 258 265 276 285 290 295 309 317 304 298 319 307 285 277 274 272 273 272 272 275 280 290 300 305 311 317 323 328 332 332 332 332 332 327 324 324 324 325 325 326 325 324 322 321 321 319
286 287 285 281 277 275 273 277 286 285 275 269 268 267 267 264 257 252 251 249 248 245 242 242 245 248 249 251 252 250 250 246 245 247 247 249 256 263 264 263 266 272 278 282 289 306 311 302 294 308 307 287 276 269 266 271 275 275 277 279 284 293 299 305 313 319 326 330 331 332 333 333 331 329 329 330 333 332 331 331 328 326 326 325 321
287 287 282 275 270 268 260 258 267 275 272 266 264 266 269 269 266 261 255 251 250 250 248 243 244 248 248 250 252 252 253 252 249 248 247 244 245 256 262 263 262 268 274 275 284 300 305 303 300 298 301 290 277 266 260 264 270 274 276 278 282 288 294 300 307 315 323 326 327 329 330 331 331 331 331 333 336 336 336 334 332 330 329 328 326
288 288 285 272 262 260 254 245 244 254 262 263 261 264 267 269 270 269 265 257 248 248 255 256 250 248 249 251 252 253 253 253 256 256 254 251 246 245 257 267 267 269 274 273 280 291 295 297 303 306 300 292 280 267 260 259 264 269 272 274 278 284 290 296 303 310 316 320 321 324 325 327 328 329 331 333 335 336 336 335 334 333 332 333 334
289 292 289 276 264 255 250 243 233 233 241 253 258 258 264 270 273 272 271 266 256 243 242 254 262 257 252 251 251 253 254 253 255 258 262 265 264 255 250 261 266 269 274 276 282 287 291 297 304 313 307 295 285 272 263 259 261 265 267 269 271 277 283 289 296 301 307 310 313 317 319 321 324 327 329 331 333 335 335 334 334 335 335 337 338
296 295 291 282 269 255 248 240 231 229 228 238 252 258 264 271 277 280 276 267 266 257 238 236 249 260 264 261 256 252 254 257 256 259 264 261 261 263 254 248 251 263 272 275 281 286 294 302 305 314 313 301 289 277 266 260 259 262 264 267 268 271 275 280 285 289 295 300 303 306 309 313 317 322 325 327 329 331 332 333 334 336 336 336 335
305 300 294 289 277 258 243 233 227 228 226 225 236 253 262 272 280 288 294 284 268 263 261 243 228 243 258 264 271 267 257 258 261 266 266 262 262 267 265 254 251 259 268 273 280 290 299 304 307 312 313 303 292 282 272 263 259 259 261 264 267 269 271 273 277 281 285 289 293 296 299 304 309 314 318 321 324 326 329 330 331 334 334 332 331
310 310 304 301 297 276 247 231 225 223 227 223 222 234 250 271 285 292 298 300 292 256 260 263 230 228 237 247 265 272 265 261 266 273 267 267 275 277 272 260 252 252 260 275 283 292 301 306 309 311 308 302 296 288 280 271 264 259 257 259 262 266 268 270 272 274 278 280 283 287 291 295 298 304 308 313 317 320 324 325 326 328 329 329 325
315 320 321 320 319 307 275 244 229 221 226 226 218 217 223 241 264 287 299 296 303 281 261 272 255 231 224 232 248 247 249 259 263 273 274 266 267 270 271 263 255 254 259 277 285 291 300 304 306 307 304 301 300 296 290 281 272 264 258 257 258 262 265 267 268 270 272 273 276 279 283 286 289 294 298 303 308 312 315 318 319 320 322 321 315
322 327 338 344 342 331 312 275 238 222 224 222 212 207 208 217 230 256 285 286 292 293 283 280 274 246 226 231 250 244 240 253 255 262 275 270 258 263 272 263 259 267 272 281 286 291 298 300 301 303 301 301 306 306 300 290 280 271 264 259 257 259 262 264 265 266 267 269 271 273 275 278 281 285 289 293 297 302 306 309 311 311 313 313 308
333 336 341 346 346 340 326 294 257 235 227 218 209 201 199 209 218 225 247 259 286 297 296 278 269 277 242 238 257 255 243 251 256 259 269 275 268 269 276 268 260 270 275 280 285 289 294 297 299 300 301 305 314 315 310 302 291 280 271 265 260 260 261 263 264 264 265 266 266 267 269 272 275 278 282 284 288 293 298 301 304 306 307 309 307
340 338 333 333 333 329 306 269 252 244 231 219 211 203 199 198 204 209 201 174 54 336 320 303 271 272 275 250 250 254 254 263 268 268 273 279 274 269 276 277 268 270 271 272 277 284 289 292 295 298 303 311 318 318 315 312 306 295 283 274 267 264 263 265 265 265 264 264 264 264 264 267 270 273 276 278 281 284 289 293 297 301 303 305 306
339 336 331 331 329 319 288 252 246 245 231 220 212 204 204 199 198 199 179 154 133 258 245 231 239 242 242 236 236 242 249 259 262 263 269 273 274 273 274 267 259 262 265 268 275 283 287 292 298 303 309 314 315 313 313 313 314 312 301 287 277 270 267 266 266 267 267 265 265 265 265 265 267 269 271 274 277 279 281 285 289 293 296 300 302
344 345 349 348 341 335 321 286 266 255 239 221 215 208 205 201 196 189 182 175 177 232 250 237 229 228 227 231 234 232 230 233 235 239 247 249 251 257 256 256 261 263 267 273 278 281 286 291 296 302 308 309 307 308 309 307 307 310 308 299 288 281 275 271 270 269 268 267 267 267 267 266 266 266 268 270 272 273 275 279 281 285 289 293 296
9 10 10 7 10 16 18 359 20 85 79 135 207 216 200 191 182 174 184 193 191 217 247 272 275 270 262 263 258 246 241 239 236 242 251 249 249 251 247 254 264 258 256 262 264 268 276 279 280 289 296 295 297 304 308 304 301 300 302 302 297 292 288 283 278 273 270 268 267 267 267 266 266 266 267 269 269 270 272 274 276 278 283 286 289
37 40 38 39 50 55 65 65 72 82 79 85 87 110 134 146 158 164 169 174 186 190 209 253 280 304 306 308 312 300 291 287 284 281 282 278 274 273 267 268 273 269 269 273 273 274 277 277 276 278 281 279 282 294 302 302 299 296 295 298 298 297 295 292 287 281 276 272 269 268 268 267 267 267 267 268 269 270 270 271 273 274 277 280 283
52 55 57 58 72 75 79 83 88 88 82 85 85 89 97 104 118 139 148 147 172 181 192 233 244 263 288 295 299 307 309 304 301 294 291 290 295 303 300 297 299 296 293 290 285 282 278 278 277 275 274 273 276 287 296 296 299 299 297 296 296 296 295 294 291 287 283 278 275 272 270 270 270 269 269 270 270 271 271 271 272 273 274 275 278
61 63 70 81 93 93 97 99 97 94 89 88 89 88 85 87 101 118 132 126 132 153 164 188 204 232 259 267 266 285 316 317 314 298 286 282 285 297 304 305 303 299 298 298 299 296 291 289 287 284 283 285 288 294 297 295 296 298 298 297 295 294 293 292 292 291 288 285 284 281 277 274 272 272 271 272 272 272 272 272 272 272 272 273 274
84 88 95 98 100 105 112 109 105 106 108 105 102 100 93 89 89 85 98 118 126 145 224 192 214 241 246 251 249 248 264 284 293 286 286 288 287 290 293 295 297 299 300 299 298 296 293 292 290 287 288 290 292 293 294 295 295 295 296 294 291 291 292 292 292 291 291 290 290 289 286 282 279 277 275 273 272 272 272 273 273 273 272 272 272
100 98 96 94 97 102 105 105 109 115 113 108 105 102 95 85 74 73 69 68 90 19 329 322 304 292 285 287 279 266 269 275 274 268 270 277 283 288 291 292 294 296 296 292 289 288 288 289 289 287 287 288 289 290 291 293 296 298 300 297 294 292 290 290 291 291 292 292 293 293 291 290 288 284 279 276 274 272 272 273 273 274 274 273 273
97 94 92 92 93 94 94 96 98 99 95 94 92 88 84 78 74 73 67 62 71 61 39 32 13 347 338 341 342 328 314 306 295 282 274 271 274 278 282 283 284 286 288 288 286 285 286 287 290 291 292 292 292 291 291 294 295 297 301 302 302 301 298 296 293 289 290 291 292 294 293 291 290 286 282 281 280 277 276 275 274 274 274 274 274
96 93 92 91 90 89 89 91 91 90 89 87 85 81 79 78 77 75 73 73 71 63 53 48 39 28 21 19 17 9 0 351 343 331 314 301 293 291 289 288 287 287 288 288 288 287 286 287 289 292 293 295 296 295 294 296 296 295 296 300 305 307 306 304 299 293 291 289 289 289 288 287 285 283 283 285 284 282 281 281 280 278 276 276 275
96 94 92 90 89 89 88 89 88 87 85 82 80 78 78 77 76 75 73 73 76 75 70 65 59 51 44 36 31 26 18 7 1 354 345 340 334 329 325 320 317 314 311 309 305 300 296 294 293 293 293 294 295 295 294 295 297 299 300 299 302 302 299 302 303 299 294 291 289 286 285 285 283 281 282 283 283 282 282 284 285 285 283 281 279
94 91 89 88 88 88 88 87 85 83 80 78 75 74 74 74 72 74 74 75 80 78 68 63 60 53 46 39 33 29 22 14 7 359 352 348 345 344 343 341 339 336 334 331 325 318 311 304 300 296 293 292 292 292 292 293 296 301 302 298 294 291 293 300 304 301 297 294 292 290 288 286 285 283 281 282 282 280 280 282 284 284 284 284 283
90 87 85 84 84 85 85 85 82 80 77 75 74 72 72 72 69 68 69 65 62 60 56 52 50 48 44 39 36 33 29 23 15 8 1 354 349 345 343 343 343 342 342 339 335 332 327 320 314 306 298 293 291 290 290 291 292 295 297 297 294 290 292 296 298 300 301 299 296 294 293 292 290 288 285 284 282 280 279 280 281 282 282 282 282
89 89 87 85 83 83 84 84 82 81 78 76 76 73 70 68 65 62 61 57 53 52 50 43 42 42 38 37 35 33 34 33 29 26 20 12 6 359 356 353 349 348 347 345 345 345 342 337 330 320 310 303 299 296 294 292 292 292 291 293 295 295 295 295 296 298 301 300 298 297 297 295 293 291 289 288 285 283 281 280 280 280 280 280 279
95 94 92 89 86 84 84 84 83 82 80 77 74 71 66 61 59 56 55 55 54 53 49 42 41 37 29 32 31 29 32 32 32 32 29 25 22 18 16 11 9 9 5 4 2 358 356 353 350 346 337 325 315 308 303 298 297 296 294 293 293 294 295 295 297 297 297 298 298 298 299 298 296 294 293 292 290 288 285 283 282 281 280 279 278
100 98 95 93 89 86 84 83 81 80 78 74 68 66 63 56 54 52 52 53 54 55 50 41 42 36 27 28 25 24 24 21 23 23 20 20 19 17 15 14 15 16 14 13 10 6 5 3 2 2 360 354 345 334 324 314 306 302 300 298 297 297 296 296 296 296 296 295 295 296 298 299 299 298 297 297 295 293 291 288 285 284 282 281 279
103 101 99 97 92 88 83 79 79 78 75 71 65 63 61 55 52 50 49 52 52 52 41 33 36 26 16 18 16 14 12 10 12 10 8 11 11 9 9 10 10 9 7 7 6 6 7 7 5 3 1 1 0 357 352 341 329 320 313 308 305 303 302 301 299 297 296 296 297 297 297 298 297 297 298 299 298 296 295 293 291 289 286 283 281
Height
1540 1541 1542 1543 1544 1545 1546 1548 1549 1550 1551 1553 1554 1554 1555 1556 1556 1557 1557 1558 1559 1559 1559 1560 1560 1560 1560 1560 1560 1561 1561 1561 1561 1562 1562 1562 1563 1563 1564 1564 1564 1564 1565 1565 1565 1565 1565 1565 1565 1565 1565 1565 1565 1566 1566 1566 1566 1566 1566 1566 1566 1566 1566 1566 1566 1567 1567 1567 1567 1567 1568 1568 1568 1568 1568 1568 1568 1568 1568 1568 1569 1569 1569 1569 1569
1540 1541 1542 1543 1544 1545 1546 1548 1549 1550 1551 1553 1554 1555 1556 1556 1557 1557 1558 1558 1559 1559 1560 1560 1560 1561 1561 1561 1561 1561 1561 1561 1561 1562 1562 1563 1563 1563 1564 1564 1564 1565 1565 1566 1566 1566 1565 1565 1565 1566 1566 1566 1566 1566 1566 1566 1566 1566 1566 1566 1566 1566 1567 1567 1567 1568 1568 1568 1568 1568 1568 1568 1568 1569 1569 1569 1569 1569 1569 1569 1569 1569 1569 1569 1570
1540 1541 1542 1543 1544 1545 1547 1548 1549 1550 1552 1553 1554 1555 1556 1556 1557 1557 1558 1559 1560 1560 1560 1561 1561 1561 1561 1561 1561 1561 1561 1561 1562 1562 1563 1563 1563 1564 1564 1564 1565 1565 1566 1567 1566 1566 1566 1566 1566 1566 1566 1566 1566 1566 1566 1566 1567 1567 1567 1567 1567 1567 1567 1568 1568 1568 1568 1568 1569 1569 1569 1569 1569 1569 1569 1569 1569 1569 1569 1569 1569 1569 1569 1570 1570
1540 1541 1542 1543 1544 1545 1546 1548 1549 1550 1551 1553 1554 1555 1556 1557 1557 1558 1559 1559 1560 1560 1560 1561 1561 1561 1562 1562 1562 1562 1562 1563 1563 1563 1564 1564 1564 1565 1565 1565 1565 1566 1567 1567 1567 1566 1566 1566 1566 1566 1567 1567 1567 1567 1567 1567 1567 1567 1567 1567 1568 1568 1568 1568 1568 1569 1569 1569 1569 1569 1570 1570 1570 1570 1570 1570 1570 1570 1570 1570 1570 1570 1570 1570 1570
1540 1541 1542 1543 1544 1545 1546 1547 1549 1550 1551 1552 1553 1555 1556 1557 1557 1558 1559 1559 1560 1560 1560 1561 1561 1561 1562 1562 1563 1563 1563 1564 1564 1564 1564 1565 1565 1565 1566 1566 1566 1567 1567 1567 1567 1567 1566 1566 1567 1567 1567 1568 1568 1568 1568 1568 1568 1568 1568 1568 1568 1569 1569 1569 1569 1569 1569 1569 1570 1570 1570 1570 1570 1570 1570 1570 1570 1570 1570 1570 1570 1570 1570 1570 1570
1540 1541 1542 1543 1544 1544 1545 1547 1548 1549 1550 1552 1553 1554 1555 1556 1557 1558 1558 1559 1560 1560 1560 1561 1561 1562 1562 1563 1563 1564 1564 1564 1564 1565 1565 1565 1565 1566 1566 1566 1567 1567 1567 1567 1567 1567 1567 1567 1568 1568 1568 1568 1568 1568 1568 1568 1568 1569 1569 1569 1569 1569 1569 1569 1569 1569 1569 1570 1570 1570 1570 1570 1570 1570 1571 1571 1571 1571 1570 1570 1570 1571 1571 1571 1571
1541 1541 1542 1543 1544 1545 1545 1546 1547 1549 1550 1551 1552 1553 1554 1555 1556 1557 1558 1559 1559 1560 1560 1561 1561 1562 1562 1563 1563 1564 1564 1564 1565 1565 1565 1566 1566 1566 1566 1567 1567 1567 1568 1568 1567 1567 1567 1568 1568 1568 1569 1569 1569 1569 1569 1569 1568 1569 1569 1570 1570 1570 1570 1570 1570 1570 1570 1570 1570 1570 1570 1570 1571 1571 1571 1571 1571 1571 1571 1570 1571 1571 1571 1571 1571
1541 1541 1542 1543 1544 1545 1546 1546 1547 1548 1549 1550 1551 1553 1554 1554 1555 1556 1557 1558 1559 1559 1560 1560 1561 1562 1562 1563 1563 1564 1564 1564 1565 1565 1566 1566 1566 1566 1566 1567 1567 1567 1568 1568 1567 1567 1567 1568 1568 1568 1568 1569 1569 1569 1568 1568 1568 1568 1569 1569 1570 1570 1570 1570 1570 1570 1570 1570 1570 1570 1570 1571 1571 1571 1572 1572 1572 1571 1571 1571 1571 1571 1571 1571 1571
1541 1541 1542 1543 1544 1545 1546 1546 1547 1548 1549 1550 1551 1552 1553 1554 1555 1556 1557 1558 1559 1559 1560 1560 1561 1561 1562 1563 1564 1564 1564 1565 1565 1565 1566 1566 1566 1566 1566 1567 1567 1567 1568 1567 1567 1567 1567 1568 1568 1568 1568 1569 1568 1568 1568 1568 1568 1568 1568 1569 1569 1569 1569 1569 1569 1569 1569 1569 1570 1570 1570 1571 1571 1572 1572 1572 1572 1571 1571 1571 1571 1571 1571 1571 1571
1541 1541 1542 1542 1543 1544 1545 1546 1547 1548 1549 1550 1551 1552 1553 1554 1555 1556 1557 1558 1558 1559 1560 1560 1561 1561 1562 1563 1563 1564 1564 1565 1565 1565 1565 1565 1566 1566 1566 1566 1567 1567 1567 1567 1567 1567 1567 1568 1568 1568 1568 1568 1568 1568 1568 1568 1568 1568 1568 1568 1569 1569 1569 1568 1568 1569 1569 1569 1570 1570 1570 1571 1571 1572 1572 1572 1572 1571 1571 1571 1571 1571 1571 1571 1571
1541 1542 1542 1543 1543 1544 1545 1546 1547 1548 1549 1550 1551 1552 1553 1554 1554 1556 1556 1557 1558 1559 1560 1560 1561 1561 1562 1563 1563 1564 1564 1564 1565 1565 1565 1565 1565 1566 1566 1566 1567 1567 1567 1568 1567 1567 1567 1567 1568 1568 1568 1568 1568 1568 1568 1568 1567 1567 1568 1568 1568 1568 1568 1568 1568 1568 1568 1569 1569 1570 1570 1571 1571 1571 1572 1572 1571 1571 1571 1571 1571 1571 1571 1571 1570
1542 1542 1542 1543 1543 1544 1545 1546 1547 1548 1549 1550 1551 1552 1553 1554 1554 1555 1556 1557 1558 1559 1559 1560 1561 1561 1562 1562 1563 1563 1564 1564 1564 1565 1565 1565 1565 1566 1566 1566 1567 1567 1567 1568 1567 1567 1567 1567 1567 1568 1568 1567 1567 1567 1567 1567 1567 1567 1567 1567 1568 1568 1568 1568 1568 1568 1568 1569 1569 1569 1570 1570 1571 1571 1571 1572 1571 1571 1571 1571 1571 1571 1571 1571 1570
1542 1542 1543 1543 1543 1544 1545 1546 1547 1548 1549 1550 1551 1552 1553 1553 1554 1555 1556 1557 1557 1558 1559 1560 1560 1561 1562 1562 1563 1563 1564 1564 1564 1565 1565 1565 1565 1566 1566 1566 1567 1567 1567 1568 1568 1567 1567 1567 1566 1567 1567 1567 1567 1567 1567 1567 1567 1567 1567 1568 1568 1568 1568 1568 1568 1568 1568 1569 1569 1569 1569 1570 1570 1571 1571 1571 1571 1571 1571 1571 1571 1571 1571 1571 1570
1543 1543 1543 1543 1544 1544 1545 1545 1546 1548 1549 1549 1550 1551 1552 1553 1554 1555 1556 1556 1557 1558 1559 1559 1560 1561 1562 1562 1563 1563 1564 1565 1564 1565 1565 1565 1566 1566 1566 1567 1567 1567 1567 1568 1568 1567 1567 1566 1565 1566 1566 1566 1566 1567 1567 1567 1567 1568 1568 1568 1568 1568 1568 1568 1568 1568 1569 1569 1569 1569 1569 1570 1570 1570 1570 1571 1571 1571 1571 1571 1571 1571 1571 1571 1571
1543 1543 1543 1543 1544 1544 1544 1545 1546 1547 1548 1549 1549 1551 1552 1552 1553 1554 1555 1556 1557 1558 1558 1559 1560 1561 1561 1562 1563 1564 1565 1565 1565 1565 1565 1565 1566 1566 1567 1567 1567 1567 1567 1567 1567 1567 1566 1566 1565 1565 1566 1566 1566 1567 1567 1567 1567 1568 1568 1568 1568 1568 1568 1568 1568 1569 1569 1569 1569 1569 1569 1569 1570 1570 1570 1570 1570 1570 1570 1570 1571 1570 1570 1570 1570
1543 1543 1543 1543 1543 1544 1544 1544 1545 1546 1547 1547 1548 1549 1551 1552 1552 1553 1554 1555 1556 1557 1558 1559 1560 1560 1561 1562 1563 1564 1564 1565 1565 1565 1565 1565 1566 1566 1567 1567 1567 1567 1567 1567 1567 1566 1566 1565 1565 1565 1565 1566 1566 1566 1567 1567 1567 1568 1568 1568 1569 1568 1568 1569 1569 1569 1569 1569 1569 1569 1569 1569 1569 1569 1569 1569 1569 1570 1570 1570 1570 1570 1570 1570 1569
1542 1543 1543 1543 1543 1543 1543 1544 1544 1545 1545 1546 1547 1548 1549 1550 1551 1552 1553 1554 1555 1556 1557 1558 1559 1560 1561 1561 1562 1563 1564 1564 1565 1565 1565 1565 1566 1566 1567 1567 1567 1567 1567 1567 1566 1566 1565 1565 1565 1565 1565 1566 1566 1566 1567 1567 1567 1568 1568 1569 1569 1569 1569 1569 1569 1569 1569 1569 1569 1569 1569 1569 1569 1569 1569 1569 1569 1569 1569 1569 1569 1569 1569 1569 1569
1542 1542 1542 1542 1543 1543 1543 1543 1543 1544 1544 1545 1546 1547 1548 1549 1550 1551 1552 1553 1554 1555 1556 1557 1558 1559 1560 1560 1561 1562 1563 1564 1564 1565 1565 1565 1565 1566 1566 1566 1566 1567 1567 1566 1566 1565 1565 1565 1565 1565 1565 1566 1566 1566 1567 1567 1567 1568 1568 1568 1569 1569 1569 1569 1569 1569 1569 1569 1569 1569 1569 1569 1569 1569 1569 1569 1569 1569 1569 1569 1569 1568 1568 1568 1568
1541 1541 1542 1542 1542 1542 1542 1542 1543 1543 1543 1544 1545 1546 1547 1548 1549 1550 1551 1552 1553 1554 1555 1556 1557 1558 1559 1559 1560 1561 1562 1563 1563 1564 1564 1565 1565 1565 1566 1566 1566 1566 1566 1566 1565 1565 1565 1565 1565 1565 1565 1566 1566 1566 1567 1567 1567 1568 1568 1568 1568 1569 1569 1569 1569 1569 1569 1569 1569 1569 1569 1569 1569 1569 1568 1568 1568 1568 1568 1568 1568 1568 1568 1568 1567
1540 1541 1541 1541 1541 1542 1542 1542 1542 1543 1543 1544 1544 1545 1546 1547 1548 1549 1550 1551 1552 1554 1554 1555 1556 1557 1558 1558 1559 1560 1561 1562 1562 1563 1563 1564 1564 1564 1565 1565 1565 1565 1565 1565 1564 1564 1565 1565 1565 1565 1565 1565 1566 1566 1566 1567 1567 1567 1568 1568 1568 1568 1569 1569 1569 1569 1569 1569 1569 1569 1569 1569 1569 1568 1568 1568 1568 1568 1568 1568 1568 1568 1567 1567 1567
1539 1540 1540 1540 1541 1541 1541 1541 1541 1542 1542 1543 1544 1545 1546 1547 1548 1549 1550 1550 1551 1553 1554 1554 1555 1556 1557 1557 1558 1559 1560 1561 1561 1562 1562 1563 1563 1564 1564 1564 1564 1565 1565 1564 1564 1564 1564 1564 1565 1565 1565 1565 1565 1566 1566 1566 1567 1567 1568 1568 1568 1568 1568 1569 1569 1569 1569 1569 1569 1569 1569 1569 1569 1568 1568 1568 1568 1568 1567 1567 1567 1567 1567 1566 1566
1538 1538 1539 1539 1540 1540 1540 1540 1540 1541 1541 1542 1543 1544 1544 1545 1546 1547 1549 1550 1551 1551 1553 1554 1554 1555 1556 1557 1557 1558 1559 1560 1560 1561 1561 1562 1562 1563 1563 1564 1564 1564 1564 1564 1563 1563 1564 1564 1564 1565 1565 1565 1565 1566 1566 1566 1567 1567 1567 1567 1568 1568 1568 1568 1568 1568 1569 1569 1569 1569 1569 1569 1569 1568 1568 1568 1568 1568 1567 1567 1567 1567 1566 1566 1566
1536 1536 1536 1537 1538 1538 1539 1539 1540 1540 1540 1541 1541 1542 1543 1544 1545 1546 1547 1548 1549 1550 1552 1553 1553 1554 1555 1556 1557 1557 1558 1559 1560 1560 1561 1561 1562 1562 1563 1563 1563 1563 1563 1563 1563 1563 1563 1564 1564 1564 1564 1564 1565 1565 1566 1566 1566 1567 1567 1567 1567 1568 1568 1568 1568 1568 1568 1568 1568 1568 1568 1568 1568 1568 1568 1568 1568 1568 1567 1567 1567 1566 1566 1566 1565
1534 1534 1534 1535 1535 1536 1537 1538 1538 1539 1539 1539 1540 1541 1542 1543 1544 1545 1546 1547 1548 1549 1550 1551 1552 1553 1554 1555 1556 1557 1557 1558 1559 1560 1560 1561 1562 1562 1562 1563 1563 1563 1563 1563 1563 1563 1563 1563 1563 1564 1564 1564 1564 1564 1565 1566 1566 1566 1567 1567 1567 1568 1568 1568 1568 1568 1568 1568 1568 1568 1568 1568 1568 1568 1568 1567 1567 1567 1567 1567 1566 1566 1566 1565 1565
1533 1533 1533 1533 1533 1533 1534 1535 1536 1537 1538 1538 1539 1540 1540 1541 1542 1543 1545 1546 1546 1547 1548 1550 1551 1551 1552 1554 1554 1555 1556 1557 1558 1558 1559 1560 1561 1561 1561 1562 1562 1562 1562 1562 1562 1562 1562 1562 1562 1563 1563 1563 1563 1563 1564 1565 1565 1566 1566 1567 1567 1567 1567 1567 1568 1568 1568 1568 1568 1568 1568 1567 1567 1567 1567 1567 1567 1566 1566 1566 1565 1565 1565 1565 1564
1531 1531 1531 1531 1531 1532 1532 1533 1534 1536 1537 1537 1538 1539 1539 1540 1541 1542 1543 1544 1545 1546 1547 1548 1549 1550 1551 1552 1553 1554 1555 1555 1556 1557 1558 1558 1559 1560 1561 1560 1561 1562 1562 1561 1561 1561 1561 1561 1561 1562 1562 1563 1563 1563 1563 1563 1564 1565 1565 1566 1566 1566 1567 1567 1567 1567 1567 1567 1567 1567 1567 1567 1567 1567 1566 1566 1566 1565 1565 1565 1564 1564 1564 1564 1563
1530 1530 1530 1530 1530 1530 1531 1532 1533 1534 1535 1536 1537 1538 1539 1540 1540 1541 1542 1542 1544 1545 1547 1548 1548 1549 1550 1551 1552 1552 1553 1554 1555 1556 1556 1557 1558 1558 1560 1560 1560 1560 1560 1560 1560 1561 1561 1560 1560 1560 1561 1561 1562 1562 1562 1562 1563 1563 1564 1564 1565 1565 1565 1566 1566 1566 1566 1566 1566 1566 1566 1566 1566 1566 1566 1566 1565 1565 1565 1564 1564 1563 1562 1562 1562
1528 1528 1528 1528 1529 1529 1530 1531 1532 1533 1534 1535 1536 1537 1538 1539 1540 1540 1541 1542 1542 1543 1545 1546 1547 1548 1548 1549 1550 1551 1552 1552 1553 1554 1554 1556 1557 1557 1558 1559 1559 1560 1559 1559 1559 1559 1559 1560 1559 1559 1560 1560 1560 1560 1561 1561 1561 1562 1563 1563 1563 1564 1564 1564 1564 1565 1565 1565 1565 1565 1565 1566 1566 1565 1565 1565 1565 1564 1564 1564 1563 1563 1562 1561 1561
1527 1527 1527 1527 1527 1528 1529 1530 1531 1532 1533 1534 1535 1536 1538 1538 1539 1540 1540 1541 1542 1543 1544 1544 1545 1546 1547 1547 1548 1549 1550 1551 1551 1552 1553 1554 1554 1555 1556 1557 1557 1558 1559 1558 1558 1558 1559 1559 1558 1559 1559 1559 1559 1559 1559 1559 1560 1560 1561 1562 1562 1562 1562 1563 1563 1563 1564 1564 1564 1564 1564 1565 1565 1565 1565 1564 1564 1564 1564 1563 1563 1563 1562 1561 1561
1526 1526 1526 1526 1526 1527 1528 1529 1530 1531 1532 1533 1534 1535 1537 1538 1539 1540 1540 1541 1541 1542 1543 1543 1543 1544 1545 1546 1547 1547 1548 1549 1550 1550 1551 1551 1552 1553 1554 1555 1555 1556 1556 1556 1557 1558 1558 1558 1558 1558 1558 1558 1558 1558 1558 1558 1558 1559 1559 1560 1561 1561 1561 1562 1562 1562 1562 1563 1563 1563 1563 1563 1564 1564 1564 1564 1564 1563 1563 1563 1562 1562 1562 1561 1561
1526 1526 1526 1526 1526 1527 1527 1528 1529 1530 1531 1532 1533 1534 1535 1536 1537 1538 1539 1540 1541 1541 1542 1542 1542 1543 1543 1544 1545 1545 1546 1548 1549 1549 1549 1550 1551 1551 1552 1553 1553 1554 1554 1555 1556 1556 1556 1556 1557 1557 1557 1557 1556 1557 1557 1557 1557 1557 1558 1558 1559 1560 1560 1560 1560 1561 1561 1561 1562 1562 1562 1562 1562 1563 1563 1563 1563 1563 1562 1562 1562 1561 1561 1561 1560
1526 1526 1526 1526 1526 1527 1527 1528 1529 1529 1530 1531 1532 1533 1534 1535 1536 1537 1538 1539 1540 1540 1541 1541 1542 1543 1543 1544 1544 1544 1545 1546 1547 1547 1547 1548 1549 1550 1550 1551 1552 1553 1553 1554 1555 1555 1555 1555 1556 1556 1556 1555 1555 1555 1555 1555 1556 1556 1556 1557 1557 1558 1558 1559 1559 1559 1559 1560 1560 1560 1560 1561 1561 1561 1561 1562 1562 1562 1562 1562 1562 1561 1561 1560 1560
1525 1525 1525 1526 1526 1526 1527 1527 1528 1529 1530 1530 1531 1532 1533 1534 1535 1536 1537 1538 1539 1540 1540 1541 1542 1543 1544 1544 1544 1543 1544 1545 1545 1546 1546 1546 1547 1548 1548 1549 1550 1551 1552 1553 1553 1554 1554 1554 1555 1555 1554 1554 1554 1554 1554 1554 1554 1554 1554 1555 1555 1556 1556 1557 1557 1557 1558 1558 1558 1558 1558 1559 1559 1560 1560 1560 1560 1561 1561 1561 1561 1561 1560 1560 1560
1525 1525 1525 1525 1525 1526 1527 1527 1528 1528 1529 1529 1530 1531 1532 1533 1534 1535 1536 1537 1538 1539 1540 1540 1541 1542 1542 1543 1543 1543 1544 1544 1545 1545 1545 1546 1546 1547 1547 1548 1549 1550 1551 1551 1552 1552 1553 1553 1553 1553 1553 1553 1553 1553 1553 1553 1552 1553 1553 1553 1554 1554 1554 1555 1555 1556 1556 1556 1556 1556 1557 1557 1557 1558 1558 1558 1559 1559 1559 1559 1559 1560 1559 1559 1559
1525 1525 1525 1525 1525 1525 1526 1526 1527 1527 1528 1529 1530 1530 1531 1532 1533 1534 1535 1536 1537 1538 1538 1539 1539 1540 1540 1541 1541 1542 1543 1543 1544 1544 1545 1545 1545 1546 1546 1547 1547 1548 1549 1550 1550 1550 1551 1551 1552 1552 1552 1552 1552 1552 1552 1551 1551 1551 1551 1551 1551 1552 1552 1553 1553 1554 1554 1555 1555 1555 1555 1555 1556 1556 1556 1557 1557 1557 1557 1558 1558 1558 1558 1558 1558
1525 1525 1525 1524 1524 1525 1525 1525 1526 1527 1528 1529 1529 1530 1530 1531 1532 1533 1534 1535 1537 1538 1538 1538 1538 1538 1539 1539 1540 1540 1541 1541 1542 1543 1543 1544 1544 1545 1545 1546 1546 1547 1548 1548 1549 1549 1549 1550 1550 1550 1550 1551 1551 1551 1551 1551 1550 1550 1550 1550 1550 1550 1550 1550 1551 1552 1552 1553 1553 1553 1553 1554 1554 1554 1554 1555 1555 1555 1555 1556 1556 1556 1556 1556 1556
1526 1525 1525 1525 1525 1524 1525 1525 1525 1526 1527 1528 1529 1530 1530 1531 1532 1533 1534 1535 1536 1537 1537 1537 1537 1537 1538 1539 1539 1539 1539 1540 1540 1541 1541 1542 1542 1543 1543 1544 1545 1546 1546 1546 1547 1547 1547 1548 1548 1548 1549 1549 1549 1549 1549 1549 1549 1549 1549 1548 1548 1548 1548 1548 1549 1549 1550 1550 1551 1551 1551 1551 1552 1552 1552 1553 1553 1553 1554 1554 1554 1554 1554 1554 1555
1526 1526 1525 1525 1525 1525 1525 1525 1525 1526 1527 1528 1529 1529 1530 1531 1532 1533 1534 1535 1536 1537 1537 1538 1538 1537 1538 1538 1539 1538 1538 1539 1539 1539 1540 1540 1541 1541 1542 1542 1543 1544 1544 1544 1545 1545 1546 1546 1546 1547 1547 1547 1547 1547 1547 1547 1547 1547 1547 1547 1546 1546 1546 1546 1546 1547 1547 1547 1548 1548 1548 1549 1549 1550 1550 1551 1551 1551 1551 1552 1552 1552 1552 1552 1552
1527 1526 1526 1526 1525 1525 1525 1525 1525 1526 1527 1528 1529 1529 1530 1531 1532 1533 1534 1535 1535 1536 1537 1538 1538 1538 1538 1538 1538 1538 1538 1538 1539 1539 1540 1540 1540 1540 1541 1541 1542 1542 1542 1543 1544 1544 1545 1545 1545 1545 1546 1546 1546 1545 1545 1545 1545 1545 1545 1545 1545 1544 1544 1544 1544 1544 1544 1545 1545 1545 1545 1546 1546 1547 1548 1548 1549 1549 1549 1549 1549 1549 1550 1550 1550
1527 1527 1527 1526 1526 1525 1525 1525 1526 1526 1527 1528 1529 1530 1531 1531 1532 1533 1534 1535 1535 1536 1536 1537 1538 1538 1538 1539 1539 1539 1539 1539 1539 1539 1539 1540 1540 1540 1540 1541 1541 1541 1541 1542 1542 1542 1543 1543 1543 1544 1544 1544 1544 1544 1543 1543 1543 1542 1543 1542 1542 1542 1542 1542 1542 1542 1542 1542 1542 1542 1542 1543 1543 1544 1545 1545 1546 1546 1547 1547 1547 1547 1547 1547 1548
1528 1528 1528 1527 1527 1527 1526 1526 1526 1527 1528 1529 1529 1530 1531 1532 1533 1533 1534 1535 1536 1536 1537 1537 1538 1539 1539 1539 1539 1539 1539 1539 1539 1539 1539 1539 1540 1540 1540 1540 1541 1541 1541 1541 1541 1541 1541 1542 1542 1542 1542 1543 1543 1542 1542 1541 1540 1540 1540 1540 1540 1540 1539 1539 1539 1540 1540 1540 1540 1540 1540 1540 1541 1541 1542 1542 1542 1543 1543 1544 1544 1544 1544 1545 1545
1529 1529 1529 1529 1529 1528 1528 1527 1528 1528 1528 1529 1529 1530 1531 1532 1533 1534 1534 1535 1536 1537 1537 1538 1538 1539 1539 1539 1539 1539 1539 1539 1539 1539 1539 1539 1539 1539 1540 1540 1540 1540 1541 1541 1541 1541 1541 1541 1541 1541 1541 1541 1541 1541 1540 1540 1539 1538 1538 1536 1536 1537 1537 1537 1537 1537 1537 1537 1537 1537 1538 1538 1538 1539 1538 1538 1539 1539 1540 1540 1541 1541 1542 1542 1542
1530 1530 1530 1531 1531 1530 1530 1530 1530 1530 1530 1530 1530 1530 1531 1532 1533 1534 1535 1536 1536 1537 1538 1538 1539 1539 1539 1539 1539 1539 1539 1539 1539 1539 1539 1539 1539 1539 1539 1539 1539 1540 1540 1540 1540 1540 1540 1541 1540 1540 1540 1540 1540 1540 1539 1539 1538 1537 1537 1535 1534 1533 1533 1534 1534 1534 1534 1534 1534 1535 1535 1535 1536 1535 1535 1535 1536 1536 1536 1537 1537 1538 1538 1539 1539
1530 1531 1531 1532 1532 1532 1532 1533 1532 1532 1532 1532 1532 1532 1532 1533 1534 1535 1536 1536 1536 1537 1538 1539 1539 1540 1540 1540 1539 1539 1539 1538 1538 1538 1538 1538 1538 1538 1538 1538 1538 1538 1538 1538 1538 1538 1539 1539 1539 1538 1538 1538 1538 1538 1538 1538 1537 1537 1536 1535 1534 1532 1530 1530 1529 1530 1531 1531 1531 1532 1532 1532 1533 1533 1532 1533 1533 1533 1533 1534 1534 1534 1535 1535 1535
1531 1532 1532 1533 1533 1534 1534 1535 1535 1534 1534 1534 1534 1534 1535 1535 1535 1536 1537 1537 1538 1538 1539 1539 1540 1540 1541 1541 1540 1540 1540 1539 1539 1538 1538 1538 1538 1537 1537 1537 1537 1537 1537 1537 1537 1537 1537 1537 1537 1537 1537 1537 1537 1537 1537 1537 1537 1536 1536 1535 1534 1533 1530 1529 1527 1524 1526 1528 1528 1529 1529 1530 1530 1530 1529 1530 1530 1531 1530 1531 1531 1531 1531 1532 1532
1533 1533 1534 1534 1534 1534 1535 1536 1536 1536 1536 1536 1537 1537 1537 1537 1537 1538 1539 1539 1540 1540 1540 1540 1540 1541 1541 1542 1542 1541 1541 1540 1540 1539 1539 1538 1538 1537 1537 1537 1537 1537 1537 1537 1536 1536 1536 1536 1536 1535 1535 1535 1535 1535 1535 1535 1536 1536 1536 1535 1535 1533 1531 1530 1528 1523 1520 1522 1525 1525 1526 1527 1527 1526 1526 1526 1527 1527 1528 1527 1527 1528 1528 1528 1528
1535 1536 1536 1536 1536 1536 1536 1537 1537 1537 1537 1538 1539 1540 1539 1539 1540 1540 1541 1541 1541 1541 1541 1541 1541 1541 1542 1543 1543 1543 1542 1542 1541 1540 1540 1539 1538 1538 1537 1537 1536 1536 1536 1536 1536 1536 1536 1535 1535 1535 1534 1534 1533 1534 1534 1533 1534 1535 1535 1534 1534 1533 1531 1530 1529 1525 1520 1517 1518 1521 1522 1523 1523 1523 1523 1523 1523 1524 1524 1524 1524 1524 1524 1524 1525
1537 1538 1539 1539 1539 1539 1538 1538 1538 1538 1539 1540 1541 1541 1541 1541 1541 1541 1542 1542 1542 1542 1542 1543 1543 1543 1543 1543 1544 1544 1543 1543 1542 1541 1540 1540 1539 1538 1538 1537 1536 1536 1535 1535 1535 1535 1535 1535 1535 1535 1534 1534 1533 1533 1533 1532 1532 1532 1533 1533 1532 1532 1531 1530 1529 1527 1524 1517 1513 1515 1517 1518 1519 1519 1519 1520 1520 1520 1520 1520 1520 1520 1520 1520 1521
1539 1540 1540 1540 1540 1541 1541 1540 1540 1540 1540 1541 1542 1542 1542 1542 1542 1542 1542 1542 1542 1543 1543 1544 1544 1544 1544 1544 1544 1544 1544 1544 1543 1542 1541 1541 1540 1539 1539 1538 1537 1536 1536 1535 1535 1535 1535 1534 1534 1534 1534 1533 1533 1532 1532 1531 1531 1531 1530 1530 1530 1530 1529 1529 1529 1527 1526 1521 1514 1512 1513 1513 1513 1514 1516 1516 1516 1516 1516 1516 1516 1516 1516 1516 1517
1540 1541 1541 1541 1541 1541 1542 1542 1541 1541 1541 1542 1542 1542 1541 1542 1542 1542 1542 1542 1543 1544 1544 1545 1545 1545 1545 1544 1544 1544 1544 1544 1543 1543 1542 1541 1541 1540 1539 1539 1538 1537 1536 1536 1535 1535 1534 1534 1534 1534 1533 1533 1533 1532 1532 1531 1530 1530 1529 1528 1528 1528 1527 1527 1527 1526 1525 1522 1517 1514 1513 1511 1508 1507 1509 1511 1511 1512 1512 1512 1512 1512 1512 1513 1513
1541 1542 1541 1541 1541 1541 1542 1542 1541 1542 1542 1542 1542 1542 1542 1542 1542 1542 1542 1543 1543 1544 1544 1545 1545 1545 1545 1545 1545 1545 1545 1544 1544 1543 1543 1542 1542 1541 1540 1539 1538 1538 1537 1536 1535 1535 1534 1534 1534 1534 1533 1533 1533 1533 1532 1531 1530 1529 1528 1527 1527 1526 1526 1525 1525 1524 1523 1521 1518 1514 1513 1512 1507 1504 1505 1506 1506 1506 1507 1507 1508 1508 1508 1508 1509